Location: Brno
(49.2000°N, 16.6330°E)
Time: 04:04:00
(UTC+01:00)

ISS - Pass Details

Date: 05 December 2021
Orbit: 413 x 422 km, 51.6° (Epoch: 22 January)

Event Time Altitude Azimuth Distance (km) Brightness Sun altitude
Rises 17:03:54 0° 289° (WNW) 2,386 0.9 -10.6°
Reaches altitude 10° 17:06:01 10° 288° (WNW) 1,517 -0.1 -10.9°
Maximum altitude 17:09:25 74° 205° (SSW) 445 -3.6 -11.4°
Drops below altitude 10° 17:12:47 10° 119° (ESE) 1,505 -1.3 -11.9°
Enters shadow 17:12:54 - 118° (ESE) 1,551 -1.3 -11.9°
